Regional Weather Roundup
Issued by NWS Sioux Falls, SD

Home | Current Version | Previous Version | Text Only | Print | Product List | Glossary On
Versions: 1 2 3 4 5 6 7 8 9 10 11 12 13 14 15 16 17 18 19 20 21 22 23 24 25 26 27 28 29 30 31 32 33 34 35 36 37 38 39 40 41 42 43 44 45 46 47 48 49 50
000
ASUS43 KFSD 291010
RWRFSD

WEATHER ROUNDUP FOR SE SOUTH DAKOTA/SW MINNESOTA/NW IOWA
NATIONAL WEATHER SERVICE SIOUX FALLS SD
500 AM CDT FRI APR 29 2016

NOTE: "FAIR" INDICATES FEW OR NO CLOUDS BELOW 12,000 FEET WITH NO
SIGNIFICANT WEATHER AND OR OBSTRUCTIONS TO VISIBILITY.


SDZ038>040-050-052>070-291100-
SOUTHEAST SOUTH DAKOTA

CITY           SKY/WX    TMP DP  RH WIND       PRES   REMARKS
BROOKINGS      CLOUDY    37  35  92 NE3       30.14R
CHAMBERLAIN    CLOUDY    40  38  93 CALM      30.14R
HURON          CLOUDY    38  36  92 N7        30.14F
MADISON        CLOUDY    37  37 100 NE8       30.13S
MITCHELL       CLOUDY    40  37  89 CALM      30.16R
SIOUX FALLS    CLOUDY    40  37  89 NE5       30.13S
WINNER         CLOUDY    42  38  85 NE3       30.11R
YANKTON        MOCLDY    39  37  93 CALM      30.13S
$$

MNZ071-072-080-081-089-090-097-098-291100-
SOUTHWEST MINNESOTA

CITY           SKY/WX    TMP DP  RH WIND       PRES   REMARKS
FAIRMONT       CLOUDY    39  30  70 N7        30.13S
JACKSON        CLOUDY    37  36  93 NE7       30.13R FOG
LUVERNE        CLOUDY    37  36  93 NE3       30.14S
MARSHALL       MOCLDY    35  35 100 W3        30.16R
MONTEVIDEO     CLOUDY    37  37 100 CALM      30.18S
PIPESTONE      CLOUDY    37  36  93 CALM      30.13R
REDWOOD FALLS  CLOUDY    37  35  92 CALM      30.15F
TRACY          CLOUDY    36  36  99 CALM      30.16R FOG
WINDOM         CLOUDY    37  37 100 CALM      30.14R
WORTHINGTON    CLOUDY    38  36  92 N5        30.13S
$$

IAZ001>003-012>014-020>022-031-032-NEZ013-014-SDZ071-291100-
NORTHWEST IOWA

CITY           SKY/WX    TMP DP  RH WIND       PRES   REMARKS
CHEROKEE       CLOUDY    40  40 100 N3        30.13S
DENISON        CLOUDY    43  41  93 CALM      30.10S
ESTHERVILLE    CLOUDY    39  38  96 N6        30.12S
LE MARS        CLOUDY    41  39  93 CALM      30.15R
ORANGE CITY    CLOUDY    39  37  93 CALM      30.12F
SHELDON        CLOUDY    39  39 100 N3        30.11S
SIOUX CITY     CLOUDY    43  40  89 CALM      30.14R
SPENCER        CLOUDY    40  37  89 NE3       30.13R
STORM LAKE     CLOUDY    41  39  93 CALM      30.12F
$$

ABBREVIATIONS USED IN REMARKS
   TC - TEMPERATURE IN CELSIUS
  WCI - WIND CHILL INDEX
   HX - HEAT INDEX
  VSB - VISIBILITY





USA.gov is the U.S. government's official web portal to all federal, state and local government web resources and services.